Location: Kellogg
(38.0159°N, 90.0546°W)
Time: 21:41:03
(UTC+00:00)

Vanguard 1 - Pass Details

Date: 18 September 2024
Orbit: 648 x 3825 km, 34.3° (Epoch: 12 October)

Event Time Altitude Azimuth Distance (km) Brightness Sun altitude
Rises 20:55:38 0° 273° (W) 5,267 14.5 34.6°
Reaches altitude 10° 20:59:52 10° 270° (W) 3,765 14.1 33.9°
Maximum altitude 21:08:21 58° 194° (SSW) 1,158 11.4 32.4°
Drops below altitude 10° 21:13:28 10° 115° (ESE) 2,306 11.7 31.5°
Sets 21:15:30 0° 111° (ESE) 3,092 12.3 31.2°
